Vorticity
-40 19 39 -53 28 47 20 18 16 6 10 16 27 19 -8 -10 -2 -8 -18 -13 -10 9 12 19 7 -0 -0 6 7 4 12 9 4 5 9 7 7 7
-3 29 23 23 3 6 -1 -5 0 2 3 11 11 19 28 11 11 8 -2 -5 -4 7 -8 -17 15 11 13 4 3 9 7 8 8 10 1 4 10 -7
10 -3 7 6 6 10 8 7 12 14 18 16 11 10 7 12 15 18 17 12 5 13 1 16 15 15 -13 15 9 -1 0 4 6 9 9 4 -2 4
14 4 3 10 7 7 6 6 6 6 6 6 8 8 13 18 17 16 21 15 14 9 15 7 12 3 8 10 6 2 -2 10 7 9 12 -2 18 -1
11 6 10 13 7 8 11 15 17 16 19 11 7 12 12 13 13 13 17 23 21 14 12 10 5 11 1 6 -1 -4 4 12 7 19 13 7 -4 4
6 6 8 8 8 13 20 20 17 13 7 15 16 7 18 16 17 13 9 13 30 27 18 13 14 5 7 5 9 9 1 15 8 12 10 16 -8 10
11 10 7 6 5 6 5 5 5 6 17 29 12 -1 11 7 13 12 6 8 6 4 5 24 19 8 17 17 -1 12 16 -1 3 2 20 8 13 8
10 11 12 12 7 6 5 6 6 7 5 4 6 10 30 26 12 15 5 -20 27 35 6 24 4 5 11 5 0 28 30 14 14 -9 8 0 23 14
21 16 13 13 8 10 13 12 8 8 7 4 5 7 5 7 5 13 18 21 24 2 25 3 38 16 16 21 30 21 21 8 -2 15 4 18 10 4
29 21 17 17 15 10 10 12 11 9 13 10 6 4 5 5 5 4 6 2 14 5 9 8 11 31 25 12 -2 17 9 18 19 15 18 20 7 9
15 14 19 26 23 12 12 13 10 4 8 8 7 13 14 10 9 5 6 1 8 10 4 0 18 4 20 7 18 36 13 5 11 25 6 14 20 2
12 15 13 12 12 11 19 27 25 22 26 21 15 7 5 6 6 9 9 6 9 6 7 6 2 8 9 2 8 -2 48 18 12 3 1 3 -4 14
20 19 16 14 13 13 14 12 14 16 16 15 16 17 19 16 13 15 10 5 9 6 6 6 4 -1 11 6 3 0 7 14 35 8 13 3 15 6
21 23 21 18 14 11 10 12 15 17 18 18 15 13 12 12 14 16 17 18 14 7 7 10 7 8 3 4 6 10 2 8 3 18 36 13 -11 7
16 9 8 6 8 18 24 16 9 13 16 28 35 29 21 17 12 10 11 14 17 17 12 6 11 9 7 7 4 2 9 6 6 -10 26 4 -10 7
10 7 8 5 19 19 6 19 15 3 7 9 17 37 45 40 25 19 16 14 12 13 18 17 14 7 10 11 8 4 5 6 10 9 -3 5 14 2
8 5 12 19 25 17 11 8 9 11 11 10 8 10 38 45 40 38 34 25 19 14 14 18 19 16 12 7 10 11 6 6 6 10 12 -5 7 -1
3 12 9 18 24 21 14 11 9 13 11 11 8 2 7 29 45 38 35 37 31 28 20 20 19 20 22 17 10 10 9 7 7 7 7 13 6 -5
7 4 3 7 16 18 17 13 12 11 13 16 15 12 11 10 19 37 41 36 35 35 32 26 24 21 19 18 22 18 10 8 8 9 7 7 7 14
6 8 8 13 25 25 21 16 19 28 32 31 27 24 25 11 10 8 13 27 40 41 37 34 34 31 22 18 16 20 22 14 11 13 11 10 5 7
12 10 12 29 29 26 32 38 22 15 15 21 26 27 27 19 14 13 14 13 14 19 26 33 37 39 38 34 24 21 26 19 16 14 17 17 16 7
13 16 41 35 32 23 8 8 11 9 10 6 -0 20 18 24 17 17 13 16 17 19 22 23 29 36 41 46 45 34 36 34 20 17 16 15 18 21
22 35 6 6 8 7 4 2 5 7 8 15 13 6 26 26 19 19 23 26 24 28 27 17 18 29 30 34 40 40 41 45 42 34 18 18 16 16
Height
5605 5606 5607 5608 5611 5613 5619 5622 5625 5630 5630 5632 5632 5636 5638 5642 5645 5648 5650 5652 5652 5652 5657 5662 5665 5668 5671 5675 5678 5680 5682 5684 5685 5687 5690 5692 5694 5695
5597 5597 5598 5599 5602 5603 5607 5610 5613 5615 5617 5618 5617 5620 5622 5624 5628 5631 5633 5634 5637 5638 5644 5646 5650 5653 5656 5659 5663 5666 5668 5670 5674 5676 5678 5680 5683 5685
5588 5590 5589 5589 5590 5593 5596 5597 5597 5597 5601 5602 5602 5603 5604 5606 5608 5612 5615 5617 5620 5625 5627 5629 5633 5638 5643 5645 5648 5651 5653 5656 5659 5662 5667 5668 5671 5673
5583 5581 5581 5581 5581 5579 5581 5582 5582 5581 5583 5586 5587 5586 5586 5588 5591 5592 5595 5597 5599 5602 5607 5612 5617 5620 5623 5626 5630 5634 5637 5640 5644 5648 5651 5655 5657 5661
5571 5570 5568 5565 5564 5564 5566 5565 5565 5566 5567 5568 5570 5570 5570 5571 5573 5575 5576 5580 5583 5582 5587 5592 5597 5601 5606 5609 5612 5616 5620 5624 5627 5632 5637 5641 5643 5647
5561 5558 5555 5553 5552 5551 5550 5550 5550 5550 5550 5551 5552 5554 5553 5552 5554 5557 5559 5562 5564 5565 5570 5573 5579 5582 5587 5591 5596 5599 5603 5606 5611 5615 5621 5625 5628 5631
5546 5544 5542 5540 5539 5537 5536 5535 5534 5535 5535 5535 5536 5536 5537 5537 5537 5539 5543 5544 5546 5550 5553 5556 5562 5564 5567 5573 5577 5581 5587 5591 5594 5599 5605 5610 5613 5616
5528 5526 5524 5522 5521 5520 5520 5519 5520 5520 5520 5520 5519 5520 5520 5520 5521 5523 5525 5528 5531 5528 5536 5539 5541 5545 5551 5555 5560 5562 5567 5573 5578 5583 5588 5593 5597 5601
5510 5508 5506 5506 5505 5504 5503 5502 5501 5501 5502 5503 5502 5502 5503 5503 5505 5506 5505 5508 5512 5513 5515 5520 5520 5527 5532 5537 5540 5544 5549 5556 5562 5568 5573 5577 5582 5586
5497 5493 5491 5488 5486 5486 5486 5486 5485 5483 5482 5484 5485 5484 5484 5485 5485 5488 5490 5493 5495 5498 5499 5504 5505 5510 5514 5518 5523 5529 5535 5539 5545 5551 5557 5561 5567 5571
5485 5479 5475 5471 5469 5468 5467 5467 5467 5465 5464 5464 5464 5464 5465 5465 5467 5470 5472 5476 5479 5482 5483 5487 5493 5496 5499 5502 5507 5512 5518 5524 5529 5534 5540 5545 5551 5556
5472 5467 5462 5458 5453 5449 5447 5446 5445 5442 5442 5442 5442 5442 5441 5443 5444 5447 5451 5455 5458 5464 5464 5470 5475 5480 5485 5487 5492 5497 5502 5507 5514 5519 5524 5531 5536 5543
5459 5453 5448 5443 5438 5435 5432 5429 5426 5424 5423 5420 5418 5417 5415 5415 5417 5420 5423 5428 5434 5440 5444 5448 5455 5459 5465 5475 5477 5481 5487 5492 5498 5504 5510 5514 5522 5529
5446 5442 5436 5432 5427 5423 5419 5415 5411 5407 5404 5402 5399 5396 5393 5392 5391 5392 5394 5399 5405 5413 5418 5422 5432 5437 5443 5452 5463 5463 5470 5477 5483 5488 5495 5500 5508 5517
5436 5432 5427 5422 5416 5411 5405 5400 5396 5391 5386 5381 5375 5371 5368 5367 5366 5366 5368 5369 5375 5381 5387 5395 5403 5412 5421 5428 5437 5448 5450 5458 5467 5474 5479 5486 5493 5502
5426 5420 5414 5408 5400 5395 5390 5385 5380 5376 5370 5363 5356 5347 5341 5337 5336 5336 5340 5343 5348 5353 5355 5362 5372 5383 5394 5403 5412 5422 5430 5438 5443 5454 5462 5471 5479 5486
5418 5412 5405 5398 5390 5383 5377 5371 5366 5361 5355 5349 5342 5333 5323 5315 5311 5308 5310 5313 5320 5326 5330 5332 5340 5351 5363 5375 5386 5393 5404 5415 5423 5429 5442 5453 5462 5471
5410 5403 5395 5387 5379 5372 5365 5358 5351 5345 5338 5332 5326 5318 5310 5301 5294 5289 5287 5289 5293 5298 5304 5306 5312 5322 5332 5344 5355 5365 5376 5389 5398 5409 5417 5431 5442 5452
5399 5392 5384 5375 5366 5358 5351 5344 5338 5331 5325 5318 5312 5305 5299 5291 5283 5277 5273 5271 5273 5276 5280 5282 5287 5294 5304 5316 5323 5334 5349 5358 5369 5383 5395 5405 5418 5429
5390 5382 5373 5363 5353 5345 5338 5332 5326 5319 5312 5305 5298 5293 5288 5284 5278 5271 5266 5262 5260 5259 5261 5262 5264 5269 5280 5287 5298 5307 5316 5328 5338 5352 5366 5380 5392 5404
5380 5371 5361 5351 5342 5335 5330 5324 5319 5313 5306 5299 5291 5284 5279 5275 5271 5266 5262 5257 5254 5251 5250 5248 5248 5253 5258 5263 5274 5281 5287 5296 5308 5322 5334 5350 5366 5379
5372 5363 5354 5346 5339 5333 5327 5322 5316 5309 5303 5295 5288 5280 5274 5269 5265 5261 5257 5253 5249 5246 5244 5242 5241 5243 5244 5248 5252 5257 5262 5269 5280 5294 5308 5322 5339 5356
5366 5358 5352 5345 5339 5332 5326 5319 5313 5306 5299 5292 5285 5278 5270 5264 5260 5257 5254 5251 5247 5244 5242 5241 5239 5239 5239 5240 5242 5244 5246 5249 5255 5267 5282 5296 5312 5327